weather station
Area: 7197 km2
The highest point: Čupec (819 m.s.l.)
Total stations: 32
Stations online: 31
Stations offline: 1
Current weather
-1°C

Meteorological map - weather stations in Jihomoravský

. The meteorological maps show weather information from WARIO weather stations

Weather stations Jihomoravský

 UpdatesNameStatusTemperatureHumidityWind speedWind direction
5.12.2021 21:25Olešnice0.7 °C95.1 %1.1 m/s SE
5.12.2021 11:31Boskovice2.8 °C81.7 %0.0 m/s W
5.12.2021 21:25Brno - Královo Pole-0.6 °C98.2 %1.2 m/s W
5.12.2021 21:25Brno - Líšeň-0.9 °C95.7 %0.7 m/s S
5.12.2021 21:25Brno - Vinohrady-0.8 °C100.0 %1.0 m/s S
5.12.2021 21:25Brno - Kníničky-0.6 °C100.0 %0.0 m/s E
5.12.2021 21:25Bzenec-0.9 °C91.9 %0.0 m/s SW
5.12.2021 21:25Holubice-0.9 °C100.0 %0.0 m/s E
5.12.2021 21:25Lesní Hluboké 1.6 °C94.6 %1.1 m/s N
5.12.2021 21:26Dolní Dubňany-1.3 °C95.4 %0.0 m/s S
5.12.2021 21:25Brno - Jih0.0 °C96.9 %1.0 m/s N
5.12.2021 21:25Svatobořice-0.2 °C100.0 %0.0 m/s NW
5.12.2021 21:25Mikulov-1.1 °C97.8 %1.7 m/s NW
5.12.2021 21:25Moravské Bránice-0.5 °C100.0 %0.0 m/s NE
5.12.2021 21:25Mutěnice °C %2.3 m/s N
5.12.2021 21:25Nebovidy-0.5 °C96.5 %1.6 m/s NW
5.12.2021 21:25Troubsko-0.7 °C94.9 %0.7 m/s W
5.12.2021 21:25Kravsko-0.3 °C91.5 %0.0 m/s NW
5.12.2021 21:25Pohořelice-1.3 °C98.7 %1.3 m/s E
5.12.2021 21:25Pozořice-1.0 °C99.6 %0.7 m/s S
5.12.2021 21:25Předklášteří-1.1 °C85.6 %0.9 m/s SE
5.12.2021 21:25Brno - Přízřenice-0.4 °C98.9 %0.8 m/s SW
5.12.2021 21:25Šlapanice-0.6 °C94.2 %0.0 m/s E
5.12.2021 21:24Strážnice GUMEX-0.8 °C96.7 %0.9 m/s SE
5.12.2021 21:25Němčičky-0.8 °C96.6 %0.0 m/s NW
5.12.2021 21:25Veselí nad Moravou-1.0 °C100.0 %0.0 m/s N
5.12.2021 21:25Veselí nad Moravou0.4 °C100.0 %0.0 m/s N
5.12.2021 21:25Kněževes Veselka-1.9 °C98.1 %2.5 m/s NW
5.12.2021 21:25Vlasatice-1.3 °C94.2 %0.0 m/s E
5.12.2021 21:25Vrbovec-0.2 °C97.5 %0.0 m/s SW
5.12.2021 21:25Rájec-Jestřebí-1.0 °C100.0 %0.7 m/s W
5.12.2021 21:25Žarošice-0.6 °C94.0 %0.0 m/s SW
Email notifications
Enter your email address to subscribe to notifications about news at warioweather.com. Your email address will not be used for any purpose other than sending these emails and will not be provided to any third party. The subscription can be ended at any time.
All data are only indicative. The portal administrator has no responsibility for potentially incorrect data and related consequences. Publishing or further sharing of content from www.warioweather.com is only allowed with written consent from WANET s.r.o.